Wind_Speed
7 7 7 7 7 8 8 7 7 7 7 7 8 8 8 9 10 11 12 13 14 15 16 17 17 18 18 19 20 20 19 19 18 17 17 16 15 14 13 12 11 10 9
6 7 7 7 7 8 8 8 8 8 7 8 9 9 10 10 11 12 13 14 15 16 17 18 18 19 19 20 21 22 22 21 20 20 19 19 18 17 16 15 14 12 11
7 7 7 7 8 8 9 8 9 8 8 9 10 10 11 11 11 12 14 15 16 17 18 18 19 20 20 20 21 24 24 24 23 22 21 21 20 19 18 17 16 15 14
6 7 7 8 8 8 8 8 9 9 9 10 10 10 11 11 12 13 14 15 16 17 18 20 20 20 20 20 22 23 26 26 26 25 24 24 23 22 21 20 19 18 17
6 6 7 7 8 8 8 8 8 9 9 9 10 10 11 12 12 13 14 15 16 16 18 19 21 21 21 21 22 24 24 26 28 28 27 26 25 24 24 23 22 21 20
6 6 6 7 7 7 7 8 8 8 9 9 10 11 11 12 13 13 14 15 16 17 17 18 20 21 22 23 23 24 25 27 28 29 30 29 28 27 26 25 25 24 23
5 5 5 6 6 6 7 7 8 8 9 9 10 11 11 12 13 14 14 15 16 17 18 18 19 21 21 23 24 25 26 27 28 29 30 31 31 31 29 28 27 27 26
4 4 5 5 5 6 6 7 8 8 9 10 10 11 11 12 13 14 14 15 17 18 19 20 21 21 22 23 24 26 26 27 29 29 30 31 32 32 32 32 30 29 28
4 4 4 4 5 5 6 7 8 9 9 10 11 12 12 13 13 14 15 16 17 19 20 21 22 23 23 24 25 26 26 27 29 29 30 31 33 34 34 34 33 32 31
4 3 3 3 4 5 6 7 8 9 10 11 12 12 13 14 15 16 16 17 19 20 21 22 23 24 25 25 26 26 27 28 29 30 31 31 32 33 35 35 35 35 34
4 3 3 3 4 5 6 7 8 10 11 12 12 13 14 15 16 17 18 18 19 20 21 22 24 25 26 27 27 28 28 28 29 30 31 32 33 33 35 36 37 37 37
4 3 3 4 5 6 7 8 10 11 12 12 13 15 15 16 17 18 18 19 20 20 21 22 24 26 27 28 29 29 30 30 31 32 33 34 34 34 35 36 37 39 39
5 4 5 5 6 8 9 10 11 12 13 14 15 16 17 18 18 19 19 20 21 21 22 22 23 25 27 29 30 31 32 33 33 34 35 35 36 36 37 37 38 38 40
6 6 7 8 8 10 11 11 13 14 15 16 16 17 18 19 19 20 21 22 23 24 24 24 24 25 27 30 31 33 34 34 35 36 37 37 38 38 39 39 39 39 39
9 9 10 11 11 12 13 14 15 15 16 17 18 19 19 20 21 21 22 23 24 25 26 26 26 26 26 28 31 33 35 36 37 38 38 39 40 40 40 41 41 41 41
12 12 13 14 14 15 16 17 17 17 18 19 20 21 22 22 22 23 24 25 25 26 27 28 28 27 27 28 29 31 33 36 38 39 40 41 42 42 42 42 43 43 43
15 16 16 17 17 18 18 19 19 20 21 22 22 23 23 24 24 25 26 26 26 26 27 28 29 29 29 29 29 30 32 34 36 39 41 42 43 44 44 44 44 45 45
18 18 19 19 20 20 21 21 22 23 23 24 24 25 25 25 26 27 27 28 28 28 28 28 30 30 31 31 31 31 32 33 35 37 39 42 43 45 46 46 46 47 47
21 21 22 22 22 23 23 23 24 24 25 26 26 27 27 27 28 28 29 29 29 29 29 30 30 31 32 32 32 32 33 33 35 36 38 40 42 44 46 47 48 48 48
24 24 24 25 25 25 26 26 26 27 27 28 28 29 29 29 30 30 31 31 31 31 31 31 31 32 33 33 33 33 33 34 34 36 37 38 40 43 45 47 48 49 49
26 27 27 27 27 28 28 28 29 29 29 30 30 31 31 31 32 32 33 33 33 33 33 33 33 33 34 34 34 34 34 35 35 36 37 37 39 41 44 46 48 49 50
28 29 29 29 29 30 30 31 31 31 31 32 32 32 33 33 33 34 34 35 35 35 35 35 34 35 34 35 35 35 35 35 36 37 37 38 39 40 41 44 46 48 50
31 30 31 31 31 31 32 33 34 34 33 33 34 35 35 36 36 36 36 37 38 38 37 37 36 36 36 36 36 36 36 36 37 38 38 38 39 40 41 42 44 46 49
33 33 34 34 33 33 34 35 35 36 36 36 36 36 37 38 39 39 39 39 39 40 39 39 38 38 38 38 38 38 38 38 38 38 39 39 39 39 40 42 42 43 46
34 35 35 34 34 35 36 37 37 38 38 38 38 38 39 40 40 41 41 41 41 41 41 40 40 40 40 40 40 39 39 39 38 38 39 39 39 40 40 41 41 42 43
35 35 36 36 37 37 38 39 40 40 40 41 41 41 42 42 43 44 44 43 43 43 43 42 42 42 42 41 41 40 40 39 39 39 39 39 39 40 40 41 41 42 43
Wind_Direction
286 295 300 305 311 313 316 313 313 309 296 280 276 271 264 262 260 257 256 253 251 249 249 250 251 248 245 238 233 230 228 229 229 227 226 226 225 225 223 222 220 217 214
280 294 298 305 312 316 317 315 311 310 301 289 282 275 270 269 262 259 259 258 257 256 254 255 254 251 251 246 239 233 230 229 229 230 229 229 228 228 228 227 226 225 222
276 288 298 307 312 315 316 314 312 312 306 298 290 283 278 276 272 268 266 264 262 260 258 258 256 257 256 253 248 239 232 230 229 229 230 230 231 231 231 230 230 229 228
275 290 300 305 309 312 313 313 312 309 306 301 296 290 285 281 279 275 270 269 267 264 260 259 258 261 259 256 251 246 237 232 230 229 231 231 232 233 233 233 232 232 231
273 290 301 307 308 309 309 311 312 309 307 306 302 296 292 288 281 276 273 271 269 269 265 261 260 262 262 258 254 250 245 238 234 231 231 232 233 234 235 235 234 234 234
273 289 298 303 306 307 309 311 313 313 311 308 305 301 297 293 286 281 278 274 272 270 269 266 263 262 261 258 256 253 249 244 240 234 233 233 233 234 235 236 235 235 236
273 287 293 300 305 310 313 314 314 315 314 312 308 303 299 295 291 286 284 279 275 273 272 271 268 266 263 260 257 255 252 250 246 241 237 236 235 234 234 235 235 236 236
259 278 291 302 310 315 316 316 316 316 316 314 311 307 302 297 293 289 285 282 279 276 274 272 270 268 266 264 259 257 255 252 249 248 243 239 238 237 236 235 236 236 236
248 270 284 299 308 312 316 320 323 324 322 319 316 313 309 304 298 294 289 286 282 279 277 274 271 269 267 265 263 260 258 255 252 251 249 245 241 240 239 238 238 237 236
239 254 281 301 311 314 317 321 323 324 323 320 317 315 312 308 304 300 295 290 285 282 279 276 273 270 268 266 264 261 260 258 254 252 252 250 247 244 242 241 240 239 238
224 248 277 296 310 316 318 322 323 324 323 320 317 313 310 308 305 303 300 296 291 286 281 278 274 271 269 267 265 263 261 259 257 254 253 251 251 250 246 244 242 240 239
228 251 270 292 305 312 315 318 320 321 321 319 317 314 310 308 307 305 302 299 296 292 286 281 277 273 270 267 265 263 261 259 258 256 254 252 251 252 250 247 245 242 241
237 257 276 290 301 306 309 313 316 318 318 317 316 314 311 308 307 305 302 300 298 295 291 286 281 277 272 269 266 264 262 260 259 257 255 253 252 251 250 250 248 246 244
248 265 277 286 295 300 305 309 312 313 314 314 314 313 311 309 308 306 303 301 299 297 294 290 286 281 276 272 268 265 263 261 259 257 256 254 253 252 251 250 249 248 247
256 266 275 283 290 296 300 304 308 309 310 312 312 311 311 309 308 307 306 303 302 300 297 294 290 286 281 276 272 268 265 262 260 258 257 255 253 252 251 250 250 249 248
259 268 277 283 289 294 298 302 305 306 308 309 310 309 309 308 307 306 306 304 302 300 297 294 293 290 285 280 277 272 268 265 262 260 258 256 254 252 251 250 250 249 249
263 270 277 283 287 292 296 298 301 304 307 308 308 308 307 307 306 306 306 305 303 301 299 296 294 292 289 284 280 276 273 269 265 262 259 257 255 253 252 251 250 249 249
266 271 276 282 286 290 293 296 299 301 302 304 306 307 307 306 306 306 306 304 303 301 299 296 295 293 291 287 284 281 276 273 270 265 261 259 256 254 253 252 251 250 249
269 272 277 281 285 288 291 293 295 298 299 301 304 304 305 306 306 306 306 305 303 301 300 297 295 294 292 289 287 284 281 277 274 270 265 261 258 256 253 252 251 250 249
272 274 277 281 284 286 289 291 293 296 298 301 302 303 303 304 304 305 305 305 303 301 300 298 296 294 292 290 288 285 282 280 277 273 269 265 261 258 256 253 251 250 249
274 276 279 281 283 285 287 289 292 295 297 300 300 301 301 302 303 303 304 303 303 301 300 298 297 295 293 290 288 286 283 281 279 275 272 269 265 261 258 255 252 251 249
274 277 280 281 282 284 286 288 291 294 296 298 299 300 300 301 301 302 302 303 302 301 299 298 297 296 294 291 289 287 285 283 280 277 274 271 268 264 261 257 254 252 249
275 277 279 280 282 285 287 289 291 293 295 296 298 298 299 300 300 300 301 301 301 300 299 298 297 296 294 292 290 288 286 283 281 278 275 273 270 267 263 259 256 254 251
276 278 280 282 283 286 288 289 290 292 294 295 296 296 298 298 299 299 300 301 300 299 298 297 295 294 293 291 290 288 287 285 282 279 276 274 271 269 265 261 258 255 252
279 281 282 283 285 287 288 289 291 292 293 294 294 295 296 297 298 298 299 299 299 299 297 296 294 293 292 291 289 287 286 285 283 280 278 275 271 269 266 262 259 256 253
279 282 283 284 285 287 288 289 291 292 293 293 294 294 295 296 296 297 297 298 298 297 296 295 294 292 292 290 289 287 285 284 282 280 278 275 272 270 267 264 260 257 255
Height
5895 5894 5894 5894 5893 5893 5892 5892 5891 5891 5891 5891 5891 5891 5891 5891 5892 5892 5892 5893 5893 5893 5894 5894 5895 5895 5896 5897 5899 5900 5902 5904 5905 5907 5908 5909 5911 5912 5913 5914 5915 5915 5916
5893 5893 5893 5892 5892 5892 5891 5890 5890 5889 5889 5889 5889 5889 5889 5889 5889 5889 5889 5890 5890 5890 5890 5891 5891 5891 5892 5893 5894 5896 5898 5900 5902 5904 5905 5907 5908 5910 5911 5912 5913 5914 5915
5891 5891 5891 5891 5890 5890 5889 5889 5888 5887 5887 5887 5887 5886 5886 5886 5886 5886 5886 5886 5886 5887 5887 5887 5887 5888 5888 5889 5890 5892 5894 5896 5898 5900 5902 5904 5906 5907 5909 5910 5911 5912 5914
5889 5889 5889 5889 5888 5888 5887 5887 5886 5886 5885 5885 5884 5884 5884 5883 5883 5883 5883 5883 5883 5883 5883 5883 5884 5884 5884 5885 5886 5887 5889 5891 5893 5895 5898 5900 5902 5904 5906 5907 5909 5910 5911
5888 5888 5887 5887 5887 5886 5885 5885 5884 5884 5883 5883 5882 5881 5881 5880 5880 5880 5880 5879 5879 5879 5879 5879 5880 5880 5880 5881 5882 5883 5884 5886 5888 5890 5893 5895 5898 5900 5902 5904 5905 5907 5909
5886 5886 5886 5885 5885 5884 5884 5883 5882 5882 5881 5880 5880 5879 5878 5878 5877 5877 5876 5876 5876 5876 5876 5875 5876 5876 5876 5877 5877 5878 5880 5881 5883 5885 5887 5890 5892 5895 5897 5899 5901 5903 5905
5884 5884 5884 5884 5883 5883 5882 5881 5881 5880 5879 5878 5877 5877 5876 5875 5874 5873 5873 5872 5872 5872 5872 5871 5871 5871 5871 5872 5873 5874 5875 5876 5877 5879 5881 5884 5886 5889 5891 5894 5896 5898 5901
5883 5883 5883 5883 5882 5881 5881 5880 5879 5878 5877 5876 5875 5874 5873 5873 5871 5870 5870 5869 5868 5868 5867 5867 5867 5866 5867 5867 5868 5868 5869 5870 5872 5873 5875 5877 5880 5883 5885 5888 5890 5893 5895
5881 5882 5882 5881 5881 5880 5879 5878 5877 5876 5875 5874 5872 5872 5870 5869 5868 5867 5866 5865 5864 5863 5863 5862 5862 5862 5862 5862 5862 5863 5864 5865 5866 5867 5869 5871 5873 5876 5878 5881 5884 5886 5889
5880 5880 5880 5880 5879 5878 5878 5877 5876 5874 5873 5872 5870 5869 5867 5866 5865 5864 5863 5861 5860 5859 5858 5857 5856 5856 5856 5856 5856 5857 5858 5859 5860 5861 5863 5864 5866 5869 5871 5874 5877 5879 5882
5879 5879 5879 5878 5878 5877 5876 5875 5874 5872 5871 5869 5868 5866 5864 5863 5861 5860 5858 5857 5855 5854 5853 5852 5851 5850 5850 5850 5850 5851 5851 5852 5853 5854 5856 5858 5859 5861 5864 5866 5869 5872 5874
5878 5878 5877 5877 5876 5875 5874 5873 5872 5870 5868 5866 5865 5863 5861 5859 5857 5855 5854 5852 5850 5849 5847 5846 5845 5844 5843 5843 5843 5843 5844 5845 5846 5847 5849 5850 5852 5854 5856 5858 5860 5863 5866
5876 5876 5876 5875 5874 5873 5872 5871 5869 5867 5866 5864 5862 5860 5858 5856 5853 5851 5849 5847 5845 5843 5842 5840 5839 5838 5836 5836 5836 5836 5836 5837 5838 5839 5840 5842 5844 5846 5848 5850 5852 5854 5857
5874 5874 5873 5873 5872 5871 5869 5868 5866 5864 5862 5860 5858 5856 5854 5851 5849 5847 5844 5842 5840 5837 5835 5834 5832 5831 5830 5829 5828 5828 5828 5828 5829 5830 5831 5833 5835 5837 5839 5841 5843 5845 5848
5871 5871 5871 5870 5868 5867 5866 5864 5863 5861 5858 5856 5854 5852 5849 5847 5844 5842 5839 5836 5834 5831 5829 5827 5825 5824 5823 5821 5820 5819 5819 5819 5820 5821 5822 5823 5825 5827 5829 5831 5833 5836 5839
5868 5868 5867 5866 5865 5864 5862 5860 5858 5856 5854 5852 5849 5847 5844 5842 5839 5836 5834 5831 5828 5825 5822 5819 5817 5816 5814 5813 5812 5811 5810 5810 5810 5811 5812 5813 5815 5816 5819 5821 5823 5826 5829
5864 5864 5863 5862 5861 5859 5858 5856 5854 5852 5849 5847 5844 5841 5839 5836 5833 5830 5827 5824 5821 5819 5816 5812 5810 5808 5806 5804 5803 5802 5801 5800 5800 5800 5801 5802 5804 5805 5807 5810 5812 5815 5818
5860 5859 5858 5857 5856 5854 5852 5850 5848 5846 5844 5841 5838 5835 5833 5830 5827 5824 5821 5817 5814 5812 5809 5805 5802 5799 5797 5795 5794 5792 5791 5790 5789 5789 5790 5790 5792 5794 5796 5798 5800 5803 5806
5855 5854 5853 5851 5850 5848 5847 5844 5842 5840 5837 5834 5832 5829 5826 5823 5819 5816 5813 5810 5807 5804 5801 5798 5794 5791 5789 5786 5784 5783 5781 5780 5779 5778 5778 5779 5780 5781 5783 5786 5788 5791 5794
5849 5848 5847 5845 5844 5842 5840 5838 5835 5833 5830 5827 5824 5821 5818 5815 5812 5809 5805 5802 5799 5796 5792 5789 5786 5783 5780 5777 5775 5773 5771 5770 5769 5768 5767 5767 5768 5769 5771 5773 5776 5779 5781
5843 5842 5840 5839 5837 5835 5832 5830 5828 5825 5822 5819 5816 5813 5810 5807 5804 5800 5797 5794 5790 5787 5783 5780 5777 5774 5771 5768 5765 5763 5761 5759 5758 5757 5756 5756 5756 5757 5758 5760 5762 5765 5768
5836 5834 5833 5831 5829 5827 5825 5822 5820 5817 5814 5811 5808 5805 5802 5799 5795 5792 5788 5784 5781 5778 5774 5771 5768 5764 5761 5758 5755 5752 5750 5749 5747 5746 5745 5745 5744 5745 5745 5747 5749 5752 5755
5828 5826 5824 5822 5820 5818 5816 5813 5811 5808 5805 5802 5799 5796 5793 5789 5786 5782 5779 5775 5771 5767 5764 5761 5758 5754 5751 5747 5745 5742 5740 5738 5736 5734 5733 5733 5732 5732 5733 5734 5736 5738 5741
5819 5817 5815 5813 5811 5809 5807 5804 5801 5798 5795 5792 5789 5786 5783 5779 5775 5772 5768 5764 5761 5757 5753 5750 5747 5744 5740 5737 5734 5731 5729 5726 5725 5723 5721 5721 5720 5720 5720 5721 5723 5725 5727
5810 5807 5806 5804 5802 5799 5797 5794 5790 5788 5785 5782 5779 5775 5772 5769 5765 5761 5757 5753 5750 5746 5742 5739 5735 5732 5729 5726 5722 5720 5717 5715 5713 5712 5710 5709 5708 5707 5708 5709 5710 5712 5714
5800 5798 5796 5794 5791 5789 5786 5783 5779 5776 5774 5771 5767 5764 5760 5757 5753 5749 5745 5742 5738 5734 5730 5726 5723 5720 5717 5714 5710 5708 5705 5703 5701 5700 5698 5696 5696 5695 5696 5696 5698 5699 5702